Location: Unspecified
(41.1637°N, 24.2901°E)
Time: 22:19:45
(UTC+02:00)

ISS - Pass Details

Date: 27 May 2023
Orbit: 411 x 419 km, 51.6° (Epoch: 06 June)

Event Time Altitude Azimuth Distance (km) Brightness Sun altitude
Rises 22:01:23 0° 303° (WNW) 2,356 1.3 -19.7°
Reaches altitude 10° 22:03:30 10° 299° (WNW) 1,492 -0.1 -19.9°
Enters shadow 22:06:31 54° 244° (WSW) 511 -3.4 -20.2°
